| time (UTC) | temp F | wind direction | speed MPH | gust MPH | rain 1hr in | rain 24hr in | rain mn in | humidity % | barometer mb |
| 20260505230051 | 82 | 244 | 0.0 | 4.0 | 0.00 | 0.00 | 0.00 | 62 | 967.1 |
| 20260505225058 | 82 | 234 | 0.0 | 4.0 | 0.00 | 0.00 | 0.00 | 62 | 967.1 |
| 20260505224034 | 83 | 265 | 0.0 | 4.0 | 0.00 | 0.00 | 0.00 | 62 | 967.1 |
| 20260505223042 | 83 | 261 | 0.0 | 4.0 | 0.00 | 0.00 | 0.00 | 62 | 967.0 |
| 20260505222048 | 84 | 234 | 0.0 | 4.0 | 0.00 | 0.00 | 0.00 | 61 | 966.9 |
| 20260505221040 | 84 | 256 | 0.0 | 2.0 | 0.00 | 0.00 | 0.00 | 61 | 967.0 |
| 20260505220020 | 84 | 246 | 0.0 | 4.0 | 0.00 | 0.00 | 0.00 | 61 | 967.1 |
| 20260505214954 | 85 | 252 | 0.0 | 3.0 | 0.00 | 0.00 | 0.00 | 61 | 967.1 |
| 20260505212852 | 86 | 104 | 0.0 | 4.0 | 0.00 | 0.00 | 0.00 | 60 | 967.5 |
| 20260505211832 | 86 | 104 | 0.0 | 4.0 | 0.00 | 0.00 | 0.00 | 60 | 967.4 |
| 20260505210818 | 86 | 254 | 0.0 | 6.0 | 0.00 | 0.00 | 0.00 | 60 | 967.6 |
| 20260505204725 | 86 | 232 | 0.0 | 7.0 | 0.00 | 0.00 | 0.00 | 60 | 967.7 |
| 20260505203723 | 86 | 209 | 0.0 | 7.0 | 0.00 | 0.00 | 0.00 | 60 | 967.7 |
| 20260505201624 | 86 | 304 | 0.0 | 3.0 | 0.00 | 0.00 | 0.00 | 60 | 968.1 |
| 20260505200626 | 86 | 263 | 0.0 | 4.0 | 0.00 | 0.00 | 0.00 | 59 | 968.4 |
| 20260505195605 | 85 | 259 | 0.0 | 4.0 | 0.00 | 0.00 | 0.00 | 59 | 968.5 |
| 20260505194534 | 84 | 297 | 0.0 | 6.0 | 0.00 | 0.00 | 0.00 | 60 | 968.6 |
| 20260505192426 | 82 | 193 | 0.0 | 5.0 | 0.00 | 0.00 | 0.00 | 60 | 968.9 |
| 20260505191407 | 82 | 220 | 0.0 | 4.0 | 0.00 | 0.00 | 0.00 | 60 | 968.9 |
| 20260505190410 | 82 | 234 | 0.0 | 3.0 | 0.00 | 0.00 | 0.00 | 60 | 968.9 |
| 20260505184243 | 81 | 273 | 0.0 | 6.0 | 0.00 | 0.00 | 0.00 | 59 | 969.3 |
| 20260505183213 | 80 | 255 | 0.0 | 3.0 | 0.00 | 0.00 | 0.00 | 57 | 969.4 |
| 20260505182214 | 79 | 271 | 0.0 | 5.0 | 0.00 | 0.00 | 0.00 | 53 | 969.5 |
| 20260505181224 | 78 | 268 | 0.0 | 5.0 | 0.00 | 0.00 | 0.00 | 51 | 969.6 |
| 20260505180232 | 77 | 252 | 0.0 | 6.0 | 0.00 | 0.00 | 0.00 | 47 | 969.7 |
| 20260505175242 | 77 | 265 | 0.0 | 5.0 | 0.00 | 0.00 | 0.00 | 44 | 969.9 |
| 20260505173145 | 77 | 194 | 0.0 | 0.0 | 0.00 | 0.00 | 0.00 | 30 | 970.0 |
| 20260505172137 | 76 | 255 | 0.0 | 1.0 | 0.00 | 0.00 | 0.00 | 20 | 970.0 |
| 20260505171155 | 76 | 296 | 0.0 | 2.0 | 0.00 | 0.00 | 0.00 | 16 | 970.1 |
| 20260505164959 | 75 | 231 | 0.0 | 5.0 | 0.00 | 0.00 | 0.00 | 1 | 970.1 |
| 20260505163939 | 75 | 266 | 0.0 | 3.0 | 0.00 | 0.00 | 0.00 | 1 | 970.2 |
| 20260505162933 | 74 | 209 | 0.0 | 2.0 | 0.00 | 0.00 | 0.00 | 1 | 970.1 |
| 20260505161925 | 74 | 257 | 0.0 | 1.0 | 0.00 | 0.00 | 0.00 | 1 | 970.0 |
| 20260505160934 | 74 | 239 | 0.0 | 4.0 | 0.00 | 0.00 | 0.00 | 1 | 970.2 |
| 20260505153010 | 73 | 234 | 0.0 | 3.0 | 0.00 | 0.00 | 0.00 | 1 | 970.1 |
| 20260505152016 | 73 | 267 | 0.0 | 2.0 | 0.00 | 0.00 | 0.00 | 1 | 970.2 |
| 20260505151019 | 73 | 272 | 0.0 | 4.0 | 0.00 | 0.00 | 0.00 | 1 | 970.1 |
| 20260505124834 | 71 | 267 | 0.0 | 0.0 | 0.00 | 0.00 | 0.00 | 1 | 969.0 |
| 20260505123844 | 71 | 277 | 0.0 | 5.0 | 0.00 | 0.00 | 0.00 | 1 | 968.8 |
| 20260505122908 | 71 | 265 | 0.0 | 4.0 | 0.00 | 0.00 | 0.00 | 1 | 968.7 |
| 20260505121928 | 71 | 290 | 0.0 | 4.0 | 0.00 | 0.00 | 0.00 | 1 | 968.6 |
| 20260505120929 | 71 | 223 | 0.0 | 4.0 | 0.00 | 0.00 | 0.00 | 1 | 968.4 |
| 20260505115927 | 71 | 220 | 0.0 | 4.0 | 0.00 | 0.00 | 0.00 | 1 | 968.4 |
| 20260505114852 | 71 | 229 | 0.0 | 1.0 | 0.00 | 0.00 | 0.00 | 1 | 968.1 |
| 20260505113910 | 71 | 215 | 0.0 | 8.0 | 0.00 | 0.00 | 0.00 | 1 | 968.1 |
| 20260505112931 | 71 | 221 | 0.0 | 4.0 | 0.00 | 0.00 | 0.00 | 1 | 968.2 |
| 20260505111948 | 71 | 267 | 0.0 | 8.0 | 0.00 | 0.00 | 0.00 | 1 | 968.3 |
| 20260505110933 | 71 | 208 | 0.0 | 6.0 | 0.00 | 0.00 | 0.00 | 1 | 968.0 |
| 20260505101654 | 71 | 225 | 0.0 | 5.0 | 0.00 | 0.00 | 0.00 | 1 | 968.4 |
| 20260505100624 | 71 | 259 | 0.0 | 2.0 | 0.00 | 0.00 | 0.00 | 1 | 968.6 |
| 20260505095602 | 71 | 261 | 0.0 | 0.0 | 0.00 | 0.00 | 0.00 | 1 | 968.5 |
| 20260505093437 | 71 | 275 | 0.0 | 5.0 | 0.00 | 0.00 | 0.00 | 1 | 968.5 |
| 20260505092449 | 71 | 263 | 0.0 | 5.0 | 0.00 | 0.00 | 0.00 | 1 | 968.7 |
| 20260505091449 | 71 | 238 | 0.0 | 4.0 | 0.00 | 0.00 | 0.00 | 1 | 968.6 |
| 20260505090425 | 71 | 252 | 0.0 | 3.0 | 0.00 | 0.00 | 0.00 | 1 | 968.8 |
| 20260505084321 | 71 | 146 | 0.0 | 5.0 | 0.00 | 0.00 | 0.00 | 1 | 968.9 |
| 20260505083306 | 71 | 248 | 0.0 | 4.0 | 0.00 | 0.00 | 0.00 | 1 | 969.1 |
| 20260505082304 | 71 | 168 | 0.0 | 5.0 | 0.00 | 0.00 | 0.00 | 1 | 969.1 |
| 20260505081244 | 71 | 281 | 0.0 | 0.0 | 0.00 | 0.00 | 0.00 | 1 | 969.1 |
| 20260505080234 | 71 | 182 | 0.0 | 8.0 | 0.00 | 0.00 | 0.00 | 1 | 969.2 |
| 20260505075232 | 71 | 254 | 0.0 | 8.0 | 0.00 | 0.00 | 0.00 | 1 | 969.3 |
| 20260505074235 | 71 | 263 | 0.0 | 6.0 | 0.00 | 0.00 | 0.00 | 1 | 969.5 |
| 20260505073237 | 71 | 248 | 0.0 | 6.0 | 0.00 | 0.00 | 0.00 | 1 | 969.6 |
| 20260505071122 | 71 | 197 | 0.0 | 5.0 | 0.00 | 0.00 | 0.00 | 1 | 969.9 |
| 20260505070138 | 71 | 263 | 0.0 | 2.0 | 0.00 | 0.00 | 0.00 | 1 | 970.1 |
| 20260505065134 | 71 | 294 | 0.0 | 5.0 | 0.00 | 0.00 | 0.00 | 1 | 970.1 |
| 20260505064138 | 71 | 267 | 0.0 | 3.0 | 0.00 | 0.00 | 0.00 | 1 | 970.2 |
| 20260505063116 | 71 | 243 | 0.0 | 2.0 | 0.00 | 0.00 | 0.00 | 1 | 970.2 |
| 20260505062053 | 71 | 264 | 0.0 | 6.0 | 0.00 | 0.00 | 0.00 | 1 | 970.4 |
| 20260505061108 | 71 | 275 | 0.0 | 6.0 | 0.00 | 0.00 | 0.00 | 1 | 970.5 |
| 20260505060114 | 71 | 253 | 0.0 | 6.0 | 0.00 | 0.00 | 0.00 | 1 | 970.5 |
| 20260505055051 | 71 | 234 | 0.0 | 6.0 | 0.00 | 0.00 | 0.00 | 1 | 970.5 |
| 20260505054039 | 71 | 240 | 0.0 | 5.0 | 0.00 | 0.00 | 0.00 | 1 | 970.4 |
| 20260505053059 | 71 | 225 | 0.0 | 4.0 | 0.00 | 0.00 | 0.00 | 1 | 970.4 |
| 20260505050933 | 72 | 261 | 0.0 | 4.0 | 0.00 | 0.00 | 0.00 | 1 | 970.4 |
| 20260505035806 | 72 | 246 | 0.0 | 3.0 | 0.00 | 0.00 | 0.00 | 7 | 970.3 |
| 20260505034807 | 72 | 238 | 0.0 | 5.0 | 0.00 | 0.00 | 0.00 | 14 | 970.3 |
| 20260505033812 | 72 | 200 | 0.0 | 5.0 | 0.00 | 0.00 | 0.00 | 19 | 970.3 |
| 20260505031638 | 72 | 229 | 0.0 | 0.0 | 0.00 | 0.00 | 0.00 | 28 | 970.2 |
| 20260505030613 | 72 | 238 | 0.0 | 6.0 | 0.00 | 0.00 | 0.00 | 34 | 970.2 |
| 20260505025612 | 72 | 238 | 0.0 | 6.0 | 0.00 | 0.00 | 0.00 | 42 | 970.3 |
| 20260505024623 | 72 | 266 | 0.0 | 1.0 | 0.00 | 0.00 | 0.00 | 49 | 970.3 |
| 20260505023630 | 73 | 267 | 0.0 | 2.0 | 0.00 | 0.00 | 0.00 | 54 | 970.2 |
| 20260505022556 | 73 | 269 | 0.0 | 0.0 | 0.00 | 0.00 | 0.00 | 56 | 970.2 |
| 20260505021549 | 73 | 259 | 0.0 | 0.0 | 0.00 | 0.00 | 0.00 | 58 | 970.1 |
| 20260505020547 | 73 | 254 | 0.0 | 2.0 | 0.00 | 0.00 | 0.00 | 59 | 970.0 |
| 20260505015542 | 73 | 254 | 0.0 | 2.0 | 0.00 | 0.00 | 0.00 | 61 | 969.9 |
| 20260505014530 | 73 | 253 | 0.0 | 0.0 | 0.00 | 0.00 | 0.00 | 62 | 970.0 |
| 20260505013521 | 74 | 240 | 0.0 | 4.0 | 0.00 | 0.00 | 0.00 | 63 | 970.0 |
| 20260505012529 | 74 | 240 | 0.0 | 3.0 | 0.00 | 0.00 | 0.00 | 64 | 970.0 |
| 20260505011509 | 75 | 236 | 0.0 | 3.0 | 0.00 | 0.00 | 0.00 | 64 | 970.1 |
| 20260505010438 | 76 | 231 | 0.0 | 4.0 | 0.00 | 0.00 | 0.00 | 64 | 969.9 |
| 20260505005418 | 76 | 219 | 0.0 | 5.0 | 0.00 | 0.00 | 0.00 | 63 | 969.8 |
| 20260505004436 | 76 | 238 | 0.0 | 8.0 | 0.00 | 0.00 | 0.00 | 63 | 969.9 |
| 20260505002306 | 77 | 245 | 0.0 | 6.0 | 0.00 | 0.00 | 0.00 | 62 | 969.8 |
| 20260505000113 | 78 | 224 | 0.0 | 9.0 | 0.00 | 0.00 | 0.00 | 62 | 969.7 |
| 20260504233950 | 79 | 327 | 0.0 | 9.0 | 0.00 | 0.00 | 0.00 | 61 | 970.1 |
| 20260504233000 | 79 | 218 | 0.0 | 5.0 | 0.00 | 0.00 | 0.00 | 61 | 970.1 |
| 20260504232007 | 79 | 215 | 0.0 | 7.0 | 0.00 | 0.00 | 0.00 | 60 | 970.1 |
| 20260504231011 | 81 | 215 | 0.0 | 7.0 | 0.00 | 0.00 | 0.00 | 58 | 970.2 |